Change the Weather History Date:

Saturday, June 8, 2013

  Actual Average (KEWR) Record (KEWR)
Temperature  
Mean Temperature 70 °F 70 °F  
Max Temperature 78 °F 79 °F 99 °F (2011)
Min Temperature 61 °F 61 °F 44 °F (1932)
Degree Days  
Heating Degree Days 0 1  
Month to date heating degree days 10  
Since 1 June heating degree days 10  
Since 1 July heating degree days 4865  
Cooling Degree Days 4 6  
Month to date cooling degree days 42  
Year to date cooling degree days 118  
Since 1 June cooling degree days 42  
Growing Degree Days 20 (Base 50)    
Moisture  
Dew Point 62 °F    
Average Humidity 67    
Maximum Humidity 89    
Minimum Humidity 57    
Precipitation  
Precipitation 0.00 in 0.15 in 0.92 in (1947)
Month to date precipitation 1.15  
Year to date precipitation 20.04  
Snow  
Snow 0.00 in 0.00 in 0.00 in (2002)
Month to date snowfall 0.0  
Since 1 July snowfall 28.5  
Snow Depth -    
Sea Level Pressure  
Sea Level Pressure 29.93 in    
Wind  
Wind Speed 7 mph (West)    
Max Wind Speed 13 mph    
Max Gust Speed 18 mph    
Visibility 10 miles    
Events      
T = Trace of Precipitation, MM = Missing Value Source: NWS Daily Summary

Daily Weather History Graph

Daily Weather History Graph

Search for Another Location

Airport or City:

Trip Planner

Search our weather history database for the weather conditions in past years. The results will help you decide how hot, cold, wet, or windy it might be!

Date:

Astronomy

Jun. 08, 2013 Rise Set
Actual Time 5:26 AM EDT 8:26 PM EDT
Civil Twilight 4:53 AM EDT 8:59 PM EDT
Nautical Twilight 4:11 AM EDT 9:41 PM EDT
Astronomical Twilight 3:22 AM EDT 10:30 PM EDT
Moon 5:32 AM EDT (6/8) 8:26 PM EDT (6/8)
Length of Visible Light 16h 06m
Length of Day
15h 00m
New Moon, 0% of the Moon is Illuminated
Jun 8
New Moon
Jun 16
First Quarter
Jun 23
Full
Jun 30
Last Quarter
Jul 8
New

Hourly Weather History & Observations

Time (EDT) Temp. Dew Point Humidity Pressure Visibility Wind Dir Wind Speed Gust Speed Precip Events Conditions
6:15 AM - - N/A% - - North - - N/A   Unknown
6:35 AM - - N/A% - - North - - N/A   Unknown
6:55 AM - - N/A% - - North - - N/A   Unknown
7:15 AM 61.3 °F 58.1 °F 89% 29.80 in - Calm Calm - N/A   Unknown
7:35 AM 62.4 °F 59.0 °F 89% 29.81 in 10.0 mi WSW 3.5 mph - N/A   Overcast
7:55 AM 63.5 °F 59.9 °F 88% 29.81 in 10.0 mi WSW 4.6 mph - N/A   Overcast
8:15 AM 65.5 °F 61.3 °F 86% 29.81 in 10.0 mi West 10.4 mph - N/A   Overcast
8:35 AM 66.4 °F 61.3 °F 84% 29.83 in 10.0 mi WSW 10.4 mph - N/A   Overcast
8:55 AM 67.6 °F 62.2 °F 83% 29.84 in 10.0 mi West 6.9 mph - N/A   Mostly Cloudy
9:15 AM 69.1 °F 62.4 °F 79% 29.85 in 10.0 mi West 10.4 mph - N/A   Mostly Cloudy
9:35 AM 70.5 °F 62.1 °F 74% 29.85 in 10.0 mi WNW 10.4 mph 18.4 mph N/A   Mostly Cloudy
9:55 AM 71.6 °F 62.2 °F 72% 29.86 in 10.0 mi West 12.7 mph - N/A   Mostly Cloudy
10:15 AM 72.3 °F 62.1 °F 70% 29.86 in 10.0 mi WNW 9.2 mph 18.4 mph N/A   Mostly Cloudy
10:35 AM 73.6 °F 62.1 °F 67% 29.88 in 10.0 mi West 11.5 mph - N/A   Mostly Cloudy
10:55 AM 73.9 °F 62.1 °F 66% 29.88 in 10.0 mi West 10.4 mph - N/A   Mostly Cloudy
11:15 AM 74.7 °F 62.6 °F 66% 29.89 in 10.0 mi West 11.5 mph - N/A   Mostly Cloudy
11:35 AM 74.5 °F 62.1 °F 65% 29.90 in 10.0 mi West 9.2 mph - N/A   Mostly Cloudy
11:55 AM 74.8 °F 61.7 °F 64% 29.90 in 10.0 mi West 10.4 mph - N/A   Mostly Cloudy
12:15 PM 75.6 °F 62.6 °F 64% 29.91 in 10.0 mi West 8.1 mph - N/A   Mostly Cloudy
12:35 PM 76.1 °F 62.1 °F 62% 29.91 in 10.0 mi WNW 6.9 mph - N/A   Mostly Cloudy
12:55 PM 76.3 °F 61.9 °F 61% 29.91 in 10.0 mi West 8.1 mph - N/A   Mostly Cloudy
1:15 PM 77.0 °F 62.8 °F 61% 29.91 in 10.0 mi WSW 9.2 mph - N/A   Overcast
1:35 PM 76.5 °F 62.2 °F 61% 29.92 in 10.0 mi West 11.5 mph - N/A   Overcast
1:55 PM 77.0 °F 62.6 °F 61% 29.91 in 10.0 mi West 9.2 mph - N/A   Overcast
2:15 PM 76.3 °F 62.2 °F 62% 29.92 in 10.0 mi West 8.1 mph - N/A   Overcast
2:35 PM 76.1 °F 62.8 °F 63% 29.91 in 10.0 mi West 9.2 mph - N/A   Overcast
2:55 PM 75.7 °F 62.8 °F 64% 29.91 in 10.0 mi West 6.9 mph - N/A   Overcast
3:15 PM 76.3 °F 63.0 °F 63% 29.92 in 10.0 mi West 8.1 mph - N/A   Overcast
3:35 PM 75.9 °F 62.6 °F 63% 29.92 in 10.0 mi West 6.9 mph - N/A   Overcast
3:55 PM 76.1 °F 63.3 °F 64% 29.92 in 10.0 mi West 6.9 mph - N/A   Overcast
4:15 PM 76.5 °F 62.2 °F 61% 29.93 in 10.0 mi West 9.2 mph - N/A   Overcast
4:35 PM 76.5 °F 62.2 °F 61% 29.93 in 10.0 mi West 8.1 mph - N/A   Overcast
4:55 PM 76.3 °F 61.7 °F 60% 29.94 in 10.0 mi West 6.9 mph - N/A   Overcast
5:15 PM 76.5 °F 62.4 °F 62% 29.94 in 10.0 mi West 9.2 mph - N/A   Overcast
5:35 PM 76.5 °F 63.3 °F 64% 29.94 in 10.0 mi WNW 8.1 mph - N/A   Overcast
5:55 PM 77.9 °F 62.1 °F 58% 29.95 in 10.0 mi West 8.1 mph - N/A   Scattered Clouds
6:15 PM 78.3 °F 62.4 °F 58% 29.95 in 10.0 mi West 8.1 mph - N/A   Clear
6:35 PM 78.1 °F 61.7 °F 57% 29.96 in 10.0 mi West 6.9 mph - N/A   Scattered Clouds
6:55 PM 78.3 °F 62.2 °F 58% 29.96 in 10.0 mi West 9.2 mph - N/A   Mostly Cloudy
7:15 PM 77.0 °F 62.1 °F 60% 29.97 in 10.0 mi West 5.8 mph - N/A   Mostly Cloudy
7:35 PM 77.5 °F 62.1 °F 59% 29.98 in 10.0 mi West 6.9 mph - N/A   Mostly Cloudy
7:55 PM 77.0 °F 61.2 °F 58% 29.98 in 10.0 mi WSW 4.6 mph - N/A   Scattered Clouds
8:15 PM 76.5 °F 61.0 °F 59% 29.98 in 10.0 mi WSW 4.6 mph - N/A   Clear
8:35 PM 75.6 °F 61.3 °F 61% 29.98 in 10.0 mi Calm Calm - N/A   Clear
8:55 PM 74.7 °F 61.7 °F 64% 29.99 in 10.0 mi West 3.5 mph - N/A   Clear
9:15 PM 74.8 °F 61.2 °F 62% 30.00 in 10.0 mi WSW 4.6 mph - N/A   Clear
9:35 PM 74.5 °F 61.7 °F 64% 30.01 in 10.0 mi WSW 4.6 mph - N/A   Clear
9:55 PM 73.6 °F 61.7 °F 66% 30.02 in 10.0 mi WSW 3.5 mph - N/A   Clear
10:15 PM 73.0 °F 62.1 °F 68% 30.03 in 10.0 mi WSW 3.5 mph - N/A   Clear
10:35 PM 72.7 °F 62.2 °F 70% 30.04 in 10.0 mi WSW 4.6 mph - N/A   Clear
10:55 PM 72.1 °F 62.6 °F 72% 30.04 in 10.0 mi WSW 4.6 mph - N/A   Clear
11:15 PM 71.6 °F 62.6 °F 73% 30.04 in 10.0 mi West 4.6 mph - N/A   Clear
11:35 PM 70.9 °F 62.6 °F 75% 30.05 in 10.0 mi West 8.1 mph - N/A   Clear
11:55 PM 70.2 °F 62.4 °F 76% 30.05 in 10.0 mi West 6.9 mph - N/A   Clear